Location: Spring Creek
(38.2870°N, 100.2160°W)
Time: 02:51:04
(UTC+00:00)

ISS - Pass Details

Date: 08 May 2021
Orbit: 417 x 422 km, 51.6° (Epoch: 22 June)

Event Time Altitude Azimuth Distance (km) Brightness Sun altitude
Exits shadow 08:35:20 10° 340° (NNW) 1,485 -0.6 -28.0°
Maximum altitude 08:35:45 11° 348° (NNW) 1,475 -0.5 -28.0°
Drops below altitude 10° 08:36:29 10° 0° (N) 1,507 -0.3 -27.9°
Sets 08:40:13 0° 43° (NE) 2,374 1.3 -27.5°
